{"data":{"norad_id":60299,"intl_designator":"2024-132X","name":"STARLINK-32151","alt_names":[],"object_type":"PAYLOAD","status":"ACTIVE","operator":null,"country":"US","launch_date":"2024-07-28","launch_site_code":"AFETR","launch_vehicle":null,"mission":null,"orbit_class":"UNKNOWN","rcs_meters":null,"size_class":null,"mass_kg":null,"dimensions":null,"purposes":["comms"],"wikipedia_slug":null,"has_3d_model":false,"image_url":null,"decayed_at":null,"tle_current":{"epoch":"2026-09-21T00:51:55.057824Z","epoch_age_seconds":139269,"freshness":"FRESH","line1":"1 60299U 24132X   26264.03605391  .00002919  00000+0  97527-4 0  9999","line2":"2 60299  53.1603 195.3210 0001068  66.1339 293.9775 15.34389059121889","mean_motion":15.34389059,"eccentricity":0.0001068,"inclination_deg":53.1603,"raan_deg":195.321,"arg_perigee_deg":66.1339,"mean_anomaly_deg":293.9775,"bstar":9.7527e-5,"rev_number":12188,"period_min":93.848427265148,"perigee_km":462.00515414735,"apogee_km":463.46636456875,"semimajor_km":6840.872759358,"source":"CELESTRAK","updated_at":"2026-09-22T09:00:49.195836Z"}}}